Location: Kapla
(46.2483°N, 15.0094°E)
Time: 05:12:00
(UTC+00:00)

Cosmos 2278 Rocket - Pass Details

Date: 03 March 2021
Orbit: 841 x 845 km, 71.0° (Epoch: 18 April)

Event Time Altitude Azimuth Distance (km) Brightness Sun altitude
Rises 18:40:27 0° 338° (NNW) 3,415 5.8 -20.0°
Reaches altitude 10° 18:43:12 10° 349° (N) 2,476 4.9 -20.4°
Maximum altitude 18:48:14 32° 51° (NE) 1,429 3.1 -21.3°
Enters shadow 18:48:31 31° 57° (ENE) 1,433 3.0 -21.3°
